[[{"header":{"parameterUnit":"m.s-1","parameterCategory":1,"la1":30.2991,"la2":30.254,"lo1":-89.0895,"lo2":-89.0444,"dy":0.0017,"dx":0.0017,"nx":28,"ny":28,"refTime":"2024-12-26T09:00:00:Z","depth":0,"parameterNumber":2,"parameterNumberName":"U-component_of_WINDS"},"data":[0,0,0,0,0,0,0,0,0,0,0,0,0,0,0,0,0,0,0,0,0,0,0,0,0,0,0,0,0,0,0,0,0,0,0,0,0,0,0,0,0,0,0,0,0,0,0,0,0,0,0,0,0,0,0,0,0,0,0.8716,0.8714,0,0.857,0.8568,0.8567,0.8519,0.852,0.852,0.8521,0.8365,0.8361,0.8356,0,0,0,0,0,0,0,0,0,0,0,0,0,0.8949,0.8945,0.8716,0.8714,0.8712,0.857,0.8568,0.8566,0.8519,0.852,0.852,0.8521,0.8367,0.8361,0.8356,0,0,0,0,0,0,0,0,0,0,0,0,0,0.883,0.8943,0.8716,0.8672,0.8666,0.8571,0.8568,0.8566,0.8519,0.852,0.8521,0.8522,0.8369,0.8362,0.8355,0.8291,0,0,0.8333,0.833,0,0,0,0,0,0,0,0,0.8836,0.8821,0.868,0.8675,0.8668,0.8564,0.8593,0.8473,0.8518,0.8575,0.8521,0.8522,0.843,0.8418,0.8388,0.8283,0.8277,0.8332,0.8328,0.8325,0.8323,0,0,0,0,0,0,0,0.8845,0.8827,0.8658,0.8678,0.8671,0.8657,0.8642,0.857,0.8498,0.857,0.8566,0.855,0.8427,0.8395,0.8384,0.8275,0.8332,0.8326,0.8322,0.8319,0.8111,0.811,0,0,0,0,0,0,0.8861,0.8834,0.8663,0.8654,0.8757,0.8652,0.8635,0.8596,0.8499,0.8485,0.8549,0.8548,0.8407,0.8393,0.8379,0.8298,0.8325,0.8318,0.8314,0.8112,0.8111,0.8109,0,0,0,0,0,0,0.8867,0.8846,0.8668,0.8743,0.8719,0.8647,0.8605,0.8593,0.8561,0.8483,0.847,0.853,0.8407,0.8389,0.8314,0.8292,0.8315,0.8309,0.8114,0.8112,0.811,0.8136,0,0,0,0,0,0,0.8873,0.8849,0.8825,0.8743,0.8716,0.8607,0.8603,0.8589,0.855,0.8547,0.8462,0.8449,0.8407,0.8325,0.8307,0.8282,0.8303,0.8115,0.8113,0.8111,0.8137,0.8135,0.8134,0,0,0,0,0,0.8882,0.8836,0.8824,0.8803,0.8684,0.8606,0.859,0.8545,0.8548,0.8523,0.8473,0.8451,0.8298,0.8317,0.8297,0.827,0.8116,0.8114,0.8111,0.8137,0.8136,0.8134,0,0,0,0,0,0,0.8914,0.8824,0.881,0.8736,0.868,0.8599,0.8565,0.8544,0.8483,0.8483,0.8427,0.8408,0.8337,0.8296,0.832,0.8204,0.8206,0.8199,0.8233,0.8231,0.823,0.8241,0.8297,0,0,0,0,0,0.8914,0.886,0.8783,0.8726,0.8699,0.8637,0.8601,0.8571,0.8509,0.8484,0.8429,0.8368,0.8306,0.8266,0.8205,0.8131,0.8112,0.8103,0.8101,0.8101,0.8095,0.8054,0.8049,0.81,0.81,0.81,0,0,0.891,0.8854,0.8823,0.8731,0.8684,0.8628,0.8617,0.8558,0.8515,0.8474,0.8401,0.8359,0.8287,0.8213,0.8177,0.8176,0.8077,0.8097,0.8097,0.8091,0.805,0.8045,0.8041,0.8098,0.8099,0.8099,0,0,0.8875,0.8828,0.8776,0.8729,0.8659,0.8618,0.8606,0.8528,0.8499,0.8426,0.8394,0.8342,0.8236,0.8187,0.8148,0.8098,0.8075,0.8079,0.8071,0.8032,0.8028,0.8024,0.8006,0.8,0.8074,0.8074,0.8074,0,0.8879,0.8796,0.8751,0.8694,0.8655,0.8618,0.8564,0.852,0.8432,0.8405,0.8406,0.8274,0.8222,0.8137,0.8125,0.8095,0.8078,0.8088,0.8032,0.8028,0.8024,0.8006,0.7999,0.8075,0.8074,0.8074,0.8074,0,0.8805,0.8747,0.8713,0.8632,0.8589,0.8533,0.8479,0.844,0.8414,0.8374,0.8299,0.8237,0.8163,0.8141,0.8113,0.8051,0.8053,0.8044,0.8045,0.8021,0.8003,0.7996,0.8076,0.8076,0.8075,0.8075,0,0,0.8784,0.8682,0.867,0.8633,0.8554,0.8507,0.8451,0.8381,0.8349,0.8289,0.824,0.8153,0.8144,0.81,0.8067,0.8033,0.7998,0.8028,0.8025,0.8025,0.7926,0.7933,0.7926,0.7983,0.7982,0.798,0.7932,0,0.874,0.8639,0.8598,0.8516,0.8462,0.8428,0.8378,0.8323,0.8284,0.8232,0.8188,0.8127,0.8121,0.8094,0.8058,0.801,0.7977,0.8013,0.7935,0.7933,0.7954,0.7917,0.7924,0.7881,0.7925,0.7923,0.7922,0,0.8673,0.8617,0.8531,0.8459,0.8435,0.8392,0.8325,0.8276,0.8213,0.8187,0.8139,0.8109,0.8047,0.8054,0.7967,0.7993,0.7959,0.793,0.7928,0.7918,0.7926,0.7906,0.7866,0.7859,0.7911,0.7912,0.7913,0,0.8668,0.857,0.8506,0.8476,0.8391,0.8361,0.8324,0.8262,0.8224,0.8165,0.8139,0.8073,0.8037,0.7986,0.7939,0.7947,0.7857,0.7859,0.7833,0.7834,0.7815,0.7816,0.7768,0.7794,0.7794,0.7794,0.7794,0,0.8622,0.857,0.8503,0.8464,0.8405,0.8358,0.83,0.826,0.8206,0.8157,0.8123,0.8077,0.8018,0.7965,0.7927,0.7862,0.7845,0.7822,0.7813,0.7825,0.7828,0.7801,0.7803,0.7792,0.7792,0.7793,0.7793,0,0.8606,0.8558,0.8486,0.8413,0.8393,0.8353,0.829,0.8249,0.821,0.8149,0.8132,0.8069,0.8004,0.7953,0.7868,0.7843,0.7775,0.7764,0.7797,0.7791,0.7769,0.7772,0.7701,0.769,0.7723,0.7723,0.7723,0,0.8579,0.8539,0.8463,0.8429,0.8393,0.8338,0.83,0.8252,0.8212,0.8139,0.8108,0.8042,0.7986,0.7885,0.7831,0.7766,0.7754,0.7734,0.7743,0.7758,0.7754,0.7757,0.7752,0.7732,0.7732,0.7732,0.7732,0,0.8538,0.8517,0.8463,0.8402,0.8357,0.8306,0.8254,0.8227,0.817,0.8127,0.8063,0.802,0.7935,0.787,0.78,0.776,0.7736,0.773,0.772,0.7732,0.7753,0.7742,0.7794,0.7731,0.7731,0.7731,0.7732,0.7732,0.8515,0.8479,0.842,0.8361,0.8318,0.827,0.823,0.8186,0.8132,0.8061,0.8036,0.797,0.7908,0.7813,0.7773,0.7719,0.7717,0.7703,0.77,0.7697,0.7699,0.7763,0.7706,0.7706,0.7706,0.7706,0.7706,0,0.8472,0.8433,0.838,0.831,0.8264,0.8248,0.819,0.8152,0.8095,0.8041,0.7989,0.7915,0.7852,0.7794,0.7728,0.7697,0.7684,0.7681,0.7683,0.7674,0.7704,0.7719,0.7693,0.7693,0.7693,0.7693,0.7693,0.7693,0.8444,0.8382,0.8354,0.827,0.8231,0.8168,0.8136,0.8092,0.8049,0.7969,0.7918,0.7881,0.7825,0.7756,0.7697,0.7682,0.7659,0.7659,0.764,0.767,0.7672,0.7674,0.7687,0.7654,0.7654,0.7614,0.7614,0.7614]},{"header":{"parameterUnit":"m.s-1","parameterCategory":1,"la1":30.2991,"la2":30.254,"lo1":-89.0895,"lo2":-89.0444,"dy":0.0017,"dx":0.0017,"nx":28,"ny":28,"refTime":"2024-12-26T09:00:00:Z","depth":0,"parameterNumber":3,"parameterNumberName":"V-component_of_WINDS"},"data":[0,0,0,0,0,0,0,0,0,0,0,0,0,0,0,0,0,0,0,0,0,0,0,0,0,0,0,0,0,0,0,0,0,0,0,0,0,0,0,0,0,0,0,0,0,0,0,0,0,0,0,0,0,0,0,0,0,0,2.3935,2.3932,0,2.3691,2.3688,2.3685,2.3615,2.3617,2.3618,2.3619,2.3369,2.3361,2.3353,0,0,0,0,0,0,0,0,0,0,0,0,0,2.434,2.4333,2.3935,2.3932,2.3929,2.3691,2.3688,2.3685,2.3615,2.3617,2.3618,2.362,2.3372,2.3362,2.3353,0,0,0,0,0,0,0,0,0,0,0,0,0,2.4137,2.4331,2.3936,2.3866,2.3857,2.3692,2.3688,2.3684,2.3615,2.3617,2.3619,2.3621,2.3375,2.3363,2.3351,2.3239,0,0,2.3315,2.331,0,0,0,0,0,0,0,0,2.4149,2.4122,2.3879,2.387,2.386,2.3686,2.3739,2.3535,2.3614,2.3707,2.3619,2.3622,2.3473,2.3453,2.3403,2.3227,2.3216,2.3314,2.3307,2.3302,2.3299,0,0,0,0,0,0,0,2.4163,2.4132,2.3839,2.3876,2.3864,2.3846,2.382,2.37,2.3582,2.3699,2.3693,2.3665,2.3468,2.3414,2.3396,2.3212,2.3315,2.3304,2.3297,2.3292,2.2933,2.2931,0,0,0,0,0,0,2.4189,2.4145,2.3846,2.3831,2.4012,2.3837,2.3808,2.374,2.3583,2.3561,2.3664,2.3663,2.3434,2.341,2.3387,2.3245,2.3302,2.3291,2.3284,2.2936,2.2933,2.293,0,0,0,0,0,0,2.4198,2.4163,2.3856,2.3986,2.3946,2.3828,2.3753,2.3734,2.368,2.3556,2.3535,2.3631,2.3434,2.3404,2.3276,2.3236,2.3286,2.3275,2.2939,2.2935,2.2932,2.2961,0,0,0,0,0,0,2.421,2.4167,2.4123,2.3986,2.3939,2.3749,2.375,2.3728,2.366,2.3656,2.352,2.3499,2.3433,2.3294,2.3265,2.322,2.3266,2.2942,2.2937,2.2933,2.2963,2.2959,2.2955,0,0,0,0,0,2.4225,2.414,2.4121,2.4085,2.3881,2.3747,2.372,2.3647,2.3657,2.3611,2.3532,2.3503,2.3246,2.3282,2.3248,2.3199,2.2944,2.2938,2.2933,2.2965,2.296,2.2955,0,0,0,0,0,0,2.4274,2.4121,2.4098,2.3966,2.387,2.3735,2.3675,2.3643,2.3542,2.3543,2.3457,2.3426,2.3305,2.3239,2.3283,2.3083,2.3094,2.3082,2.313,2.3124,2.312,2.3138,2.3256,0,0,0,0,0,2.427,2.4173,2.4045,2.3941,2.3894,2.3794,2.3732,2.3684,2.3581,2.354,2.3451,2.3353,2.3249,2.3183,2.3081,2.2954,2.2923,2.2904,2.29,2.2897,2.2887,2.2816,2.2806,2.2912,2.2912,2.2913,0,0,2.4259,2.4164,2.4108,2.3949,2.3869,2.3771,2.376,2.3656,2.3583,2.3524,2.3398,2.333,2.3215,2.3087,2.3026,2.3029,2.2852,2.289,2.2889,2.288,2.281,2.28,2.2791,2.2909,2.2909,2.291,0,0,2.4191,2.4109,2.4014,2.3935,2.3814,2.3748,2.3726,2.3596,2.3548,2.3421,2.3375,2.3287,2.3111,2.3031,2.2967,2.2871,2.2841,2.284,2.2819,2.2751,2.2743,2.2735,2.2701,2.269,2.2831,2.2831,2.2831,0,2.4193,2.4044,2.3969,2.3869,2.38,2.3744,2.3647,2.3574,2.3426,2.338,2.3385,2.3164,2.3082,2.2935,2.2912,2.2862,2.2834,2.2855,2.275,2.2741,2.2733,2.27,2.2687,2.2831,2.2831,2.2831,2.2831,0,2.4053,2.3951,2.3889,2.3749,2.3674,2.3576,2.3486,2.3419,2.3378,2.3312,2.3184,2.3084,2.2962,2.2924,2.2882,2.2771,2.2777,2.2767,2.2776,2.2725,2.2692,2.2679,2.2833,2.2832,2.2832,2.2832,0,0,2.4007,2.3829,2.3807,2.3743,2.3607,2.3527,2.3427,2.3308,2.3252,2.3153,2.3067,2.2921,2.2911,2.2839,2.2789,2.2729,2.2661,2.2726,2.2722,2.2718,2.2534,2.2542,2.2528,2.264,2.2638,2.2635,2.2544,0,2.3922,2.3741,2.3672,2.3525,2.343,2.3376,2.3289,2.3197,2.3132,2.3043,2.2972,2.287,2.2865,2.2821,2.2759,2.2682,2.2622,2.2688,2.256,2.2557,2.2591,2.2511,2.2519,2.2437,2.253,2.2528,2.2526,0,2.3797,2.3698,2.3542,2.3419,2.3377,2.33,2.3186,2.3101,2.2995,2.2953,2.2874,2.2827,2.2722,2.2739,2.2593,2.2639,2.2583,2.2537,2.2532,2.2517,2.2538,2.2494,2.2409,2.2397,2.2506,2.2507,2.2509,0,2.378,2.3607,2.3492,2.3439,2.3293,2.324,2.3177,2.3073,2.3007,2.2907,2.2863,2.2753,2.2692,2.2609,2.2534,2.2554,2.2396,2.2406,2.2358,2.236,2.2326,2.233,2.2231,2.2291,2.2291,2.2292,2.2292,0,2.3692,2.3598,2.3482,2.3411,2.3306,2.3227,2.3125,2.3058,2.2966,2.2882,2.2828,2.275,2.2657,2.2567,2.2509,2.2397,2.237,2.2334,2.2319,2.2338,2.2343,2.23,2.2304,2.2288,2.2289,2.229,2.229,0,2.3654,2.3573,2.3443,2.3316,2.3282,2.321,2.3101,2.303,2.2965,2.2858,2.2829,2.2726,2.2618,2.2536,2.2395,2.2356,2.2237,2.2222,2.2273,2.2266,2.2222,2.2228,2.2093,2.2071,2.2146,2.2146,2.2145,0,2.3603,2.353,2.3396,2.3336,2.3273,2.3176,2.3109,2.3029,2.2961,2.2836,2.2781,2.2669,2.2575,2.2405,2.2318,2.221,2.2192,2.2152,2.2176,2.2198,2.2192,2.2197,2.219,2.2149,2.2149,2.2148,2.2148,0,2.3521,2.3485,2.339,2.328,2.3201,2.3111,2.302,2.2973,2.2878,2.2804,2.2692,2.262,2.2477,2.2367,2.2251,2.2186,2.2151,2.2142,2.2125,2.2143,2.2176,2.2159,2.2265,2.2145,2.2145,2.2146,2.2146,2.2146,2.3475,2.3409,2.3304,2.32,2.3123,2.304,2.2968,2.2894,2.28,2.2677,2.2636,2.2522,2.242,2.2261,2.2195,2.2105,2.2104,2.208,2.2074,2.2069,2.2071,2.2191,2.2084,2.2084,2.2084,2.2084,2.2084,0,2.3391,2.3322,2.3227,2.3102,2.302,2.2995,2.2893,2.2827,2.2727,2.2634,2.2544,2.2417,2.231,2.2216,2.2105,2.2052,2.2033,2.2025,2.2028,2.2014,2.2077,2.2103,2.2042,2.2042,2.2042,2.2042,2.2042,2.2042,2.3338,2.3224,2.3176,2.3024,2.2955,2.2843,2.2787,2.271,2.2636,2.2497,2.2408,2.2347,2.2254,2.2137,2.2039,2.2014,2.1976,2.1972,2.1944,2.2004,2.201,2.2015,2.2038,2.1965,2.1965,2.1888,2.1887,2.1887]}]]